Location: West Cummington
(42.4920°N, 72.9680°W)
Time: 11:26:27
(UTC-04:00)

Daily predictions for brighter satellites

Satellite Brightness Start Highest point End
(mag) Time Altitude Azimuth Time Altitude Azimuth Time Altitude Azimuth
H-2A R/B 4.5 20:34:39 10° SSW 20:38:19 24° SSE 20:49:27 10° ESE
USA 186 2.4 20:42:07 10° S 20:45:12 58° W 20:48:28 10° NNW
Cosmos 1674 Rocket 3.7 20:45:16 10° N 20:49:42 60° E 20:54:04 10° SSE
OPS 6432 4.4 20:46:17 10° SW 20:49:43 80° NW 20:52:50 10° NNE
NOSS 2-2 (C) 3.8 20:46:01 10° SW 20:50:08 78° NW 20:54:58 10° NE
COS B Rocket 4.4 20:48:29 10° NNE 20:51:58 27° E 20:55:09 10° SE
Resurs 01 Rocket 4.4 20:51:25 10° SW 20:54:19 17° W 20:57:14 10° NW
Meteor 1-27 Rocket 4.0 20:49:31 10° N 20:54:54 48° ENE 21:00:12 10° SSE
SL-27 R/B 2.6 20:53:50 10° NNW 20:57:31 80° WSW 21:01:05 10° SSE
Cosmos 1606 3.3 20:54:41 10° N 20:58:27 42° ENE 21:02:10 10° SSE
Sich 1 Rocket 3.8 20:57:13 10° S 21:01:43 58° E 21:06:14 10° NNE
SL-08 ROCKET BODY 4.5 20:57:44 10° S 21:03:46 89° W 21:09:44 10° N
Cosmos 1356 Rocket 4.4 21:00:53 10° SSW 21:05:02 53° WNW 21:09:16 10° N
Cosmos 1892 3.7 21:01:26 10° SSW 21:05:11 50° WNW 21:08:58 10° N
Cosmos 1782 2.9 21:05:18 10° N 21:09:21 82° W 21:13:23 10° S
Envisat 3.0 21:06:43 10° SSE 21:11:45 69° ENE 21:16:49 10° N
CZ-4 DEB 4.2 21:12:26 10° S 21:15:25 37° W 21:18:24 10° NNW
COSMOS 2487 3.1 21:12:03 10° N 21:15:31 41° ENE 21:18:10 15° SE
GPS 2-05 Rocket1 4.3 21:12:36 10° SW 21:15:36 23° S 21:17:33 15° SE
Cosmos 2341 Rocket 4.2 21:10:43 10° SSE 21:16:46 52° E 21:22:49 10° NNE
Atlas Centaur 2 3.2 21:15:46 10° SSW 21:16:49 11° S 21:17:52 10° S
Cosmos 1975 Rocket 3.6 21:15:56 10° N 21:20:01 39° ENE 21:23:14 15° SE
Coronas F rocket 4.2 21:18:50 10° SW 21:20:52 19° WNW 21:22:54 10° NNW
Cosmos 1939 Rocket 2.9 21:18:23 10° S 21:22:15 78° WSW 21:26:12 10° NNW
TIMED 4.4 21:18:56 10° SSW 21:23:18 81° ESE 21:27:41 10° NNE
ARGOS 3.9 21:23:42 15° SE 21:27:35 36° ENE 21:32:26 10° N
ATLAS 5 CENTAUR R/B 3.7 21:22:28 10° NW 21:27:56 35° WSW 21:33:40 10° S
ERS-1 Rocket 3.6 21:24:27 10° S 21:29:23 55° W 21:34:21 10° NNW
Cosmos 407 Rocket 4.0 21:24:14 10° NNW 21:29:26 60° WSW 21:34:39 10° S
Timation 2 Rocket 4.2 21:24:04 10° NNW 21:29:56 52° ENE 21:34:22 17° SE
Cosmos 2084 3.0 21:26:19 10° SSW 21:30:09 75° SE 21:34:00 10° NE
Cosmos 1908 Rocket 3.6 21:25:55 10° S 21:30:20 88° W 21:34:48 10° N
Cosmos 962 Rocket 4.5 21:25:27 10° S 21:31:31 67° E 21:37:42 10° NNE
Cosmos 1378 Rocket 3.5 21:27:47 10° N 21:32:07 85° E 21:36:03 12° S
NOSS 5 (C) 4.2 21:29:20 10° SW 21:32:44 84° NW 21:35:51 10° NE
Cosmos 1140 Rocket 3.6 21:30:22 10° NNW 21:35:28 60° ENE 21:39:05 19° SE
H-2A R/B 3.5 21:32:36 14° ESE 21:35:43 23° ENE 21:39:49 10° NNE
deb Chang Zheng 4 3.8 21:32:03 10° N 21:36:28 77° WNW 21:40:54 10° SSW
USA 234 4.2 21:34:41 10° ENE 21:39:31 22° ESE 21:43:59 11° S
Cosmos 1452 Rocket 3.6 21:35:20 10° SSW 21:40:35 80° WNW 21:45:55 10° NNE
Nimbus 7 Rocket 4.4 21:35:52 10° NNE 21:41:50 90° WNW 21:47:50 10° SSW
Cosmos 2154 Rocket 4.1 21:37:06 10° S 21:43:19 79° W 21:49:33 10° N
USA 245 3.4 21:44:17 27° SE 21:45:50 49° ENE 21:49:47 10° N
YAOGAN 6 2.4 21:44:08 24° SSE 21:46:07 71° ENE 21:49:38 10° N
CZ-4B R/B 3.7 21:43:10 10° NNE 21:47:57 47° E 21:51:12 19° SSE
Cosmos 1408 2.8 21:44:28 10° SSW 21:48:07 71° W 21:51:46 10° N
Cosmos 1242 Rocket 2.6 21:45:04 10° N 21:48:42 63° ENE 21:50:30 28° SSE
Cosmos 1833 Rocket 3.6 21:43:40 10° N 21:48:48 35° ENE 21:52:00 20° ESE
SPOT 1/Viking Rocket 3.6 21:47:24 21° SSE 21:50:53 64° ENE 21:56:04 10° N
Cosmos 2278 Rocket 2.2 21:45:15 10° SSW 21:50:56 88° WNW 21:56:40 10° NNE
Cosmos 1295 Rocket 4.5 21:44:58 10° S 21:51:15 69° E 21:57:28 10° NNE
CZ-4 SHROUD 3.2 21:50:45 27° S 21:52:17 80° WSW 21:55:23 10° NNW
Cosmos 1825 2.6 21:48:43 10° SSW 21:52:29 62° W 21:56:17 10° N
Cosmos 1844 Rocket 4.0 21:48:52 10° SW 21:54:13 42° WNW 21:59:35 10° NNE
Intercosmos 25 2.9 21:52:53 24° S 21:54:51 62° E 21:57:59 10° NNE
MetOp-A 4.2 21:52:41 16° S 21:57:00 77° WSW 22:02:24 10° NNW
PSLV R/B 3.4 21:55:39 27° S 21:57:01 59° W 21:59:57 10° NNW
Cosmos 2151 Rocket 4.2 21:56:02 27° SE 21:57:46 38° E 22:01:58 10° NNE
Cosmos 489 Rocket 4.5 21:51:55 10° NNW 21:58:09 83° WSW 22:02:34 20° SSE
H-2A R/B 3.3 21:55:39 10° SSW 21:59:38 37° W 22:03:35 10° NNW
Cosmos 1184 Rocket 3.6 21:59:21 10° SSW 22:02:33 51° WNW 22:05:51 10° N
Meteor 1-14 Rocket 4.3 21:58:46 18° S 22:02:57 61° E 22:08:28 10° NNE
Cosmos 2082 Rocket 2.3 22:04:34 10° NNW 22:10:15 63° ENE 22:13:01 30° SE
Cosmos 2366 rocket 4.1 22:07:19 23° SSE 22:11:17 59° E 22:17:30 10° NNE
Cosmos 1850 Rocket 4.0 22:07:16 10° NNW 22:12:37 86° WSW 22:15:25 29° SSE
Terra 2.5 22:13:28 30° ESE 22:15:03 39° ENE 22:19:28 10° N
Cosmos 1238 Rocket 4.3 22:12:57 10° NNW 22:15:51 28° W 22:18:33 13° SSW
Cosmos 1812 3.7 22:12:29 10° NNE 22:15:57 30° ENE 22:16:16 29° E
ISS -2.4 22:14:15 10° WSW 22:17:26 50° NNW 22:20:37 10° NE
SL-08 RB Rocket 3.7 22:17:18 34° SSE 22:19:18 87° ENE 22:23:58 10° NNW
SPOT 5 4.2 22:15:47 12° SSW 22:20:15 40° W 22:25:18 10° NNW
Okean 1 Rocket 4.4 22:20:59 25° E 22:20:59 25° E 22:24:35 10° NE
USA 229 DEB 3.8 22:18:36 10° NNW 22:25:43 75° NE 22:29:26 31° SE
USA 229 3.8 22:18:42 10° NNW 22:25:50 75° NE 22:29:32 31° SE
Cosmos 2297 3.7 22:20:18 10° SSW 22:26:00 90° WNW 22:31:47 10° NNE
Okean 2 Rocket 4.3 22:25:33 10° SSW 22:29:44 41° WNW 22:33:55 10° N
Cosmos 1741 Rocket 4.3 22:27:48 10° NNW 22:32:57 59° WSW 22:35:15 31° S
DMSP B5D2-2 4.3 22:28:10 10° NNE 22:33:15 50° E 22:34:30 41° SE
NOAA 11 4.5 22:30:26 27° S 22:33:25 64° WSW 22:38:55 10° NNW
Lacrosse 5 3.9 22:38:29 14° ENE 22:38:29 14° ENE 22:39:23 10° ENE
Gbstr 26 Del rocket 4.1 22:33:19 10° NW 22:38:10 42° NNE 22:40:13 25° ENE
Cosmos 2218 Rocket 4.2 22:33:57 18° SSW 22:38:52 76° W 22:45:18 10° N
Cosmos 1331 Rocket 4.1 22:42:01 47° SE 22:42:49 52° ESE 22:47:49 10° NNE
CZ-4C R/B 3.3 22:43:58 62° SSW 22:44:32 76° WSW 22:48:39 10° NNW
ASTEX 1 3.7 22:40:01 10° NNE 22:44:48 46° E 22:45:20 44° ESE
Timation 1 Rocket 4.3 22:44:33 34° S 22:47:14 68° ESE 22:53:12 10° NNE
BREEZE-M DEB (TANK) 3.3 22:39:01 10° WNW 22:47:37 44° SW 22:48:20 40° SSW
Cosmos 1110 Rocket 3.9 22:48:01 47° S 22:49:25 70° ESE 22:54:37 10° NNE
BREEZE-M DEB (TANK) 4.0 22:49:34 10° NW 22:51:37 24° NNE 22:55:19 10° ENE
DELTA 2 DEB (DPAF) 4.4 22:51:58 47° SSW 22:53:00 62° WSW 22:57:26 10° NNW
Cosmos 1727 Rocket 4.0 22:47:10 10° N 22:53:21 75° W 22:56:01 36° S
AVUM R/B 3.7 22:51:07 10° NNW 22:54:13 66° NNW 22:54:13 66° NNW
Cosmos 1400 Rocket 4.4 22:59:55 24° ENE 22:59:55 24° ENE 23:02:20 10° NNE
CARTOSAT-1 3.6 22:58:42 62° SSW 22:59:14 71° WSW 23:03:34 10° NNW
Cosmos 2369 Rocket 3.6 23:00:27 22° E 23:00:27 22° E 23:03:41 10° NE
Meteor 2-19 Rocket 4.5 23:00:07 33° SSW 23:03:03 76° W 23:09:12 10° N
Meteor 1-20 Rocket 4.4 23:11:44 36° SSW 23:13:58 66° WNW 23:19:29 10° N
NOSS 3-1 (C) 4.2 23:06:51 10° NNW 23:14:19 65° NE 23:17:46 37° ESE
Cosmos 1486 Rocket 3.9 23:09:03 10° NNW 23:14:25 76° ENE 23:15:08 64° SE
H-2A R/B 2.7 23:13:15 38° SW 23:14:48 50° W 23:19:58 10° NNW
Okean 1 4.0 23:18:45 10° NNW 23:22:36 49° W 23:22:36 49° W
USA 234 3.1 23:16:32 10° NE 23:23:06 83° SE 23:29:38 10° SW
Cosmos 1633 4.3 23:24:49 26° NE 23:24:49 26° NE 23:26:45 10° NNE
Cosmos 1821 Rocket 3.9 23:27:03 58° SSE 23:28:11 71° E 23:34:23 10° NNE
Cosmos 1833 Rocket 3.6 23:27:37 10° NW 23:32:41 36° WSW 23:33:42 33° SW
Cosmos 2285 Rocket 4.1 23:34:44 54° ESE 23:35:08 54° ESE 23:41:20 10° NNE
Cosmos 1943 Rocket 4.0 23:37:08 17° ENE 23:37:08 17° ENE 23:39:20 10° ENE
Meteor 2-21 Rocket 4.3 23:39:07 65° SSE 23:40:03 79° E 23:46:17 10° N
Cosmos 1934 Rocket 3.8 23:40:23 66° SE 23:41:06 74° E 23:47:09 10° N
Meteor 2-16 Rocket 4.4 23:41:16 63° SE 23:41:53 67° E 23:47:56 10° NNE
Cosmos 1302 Rocket 4.0 23:43:57 67° WSW 23:44:31 75° WNW 23:49:50 10° NNE
Cosmos 2123 Rocket 3.9 23:38:35 10° N 23:44:51 70° E 23:45:41 62° SE
Cosmos 1025 Rocket 3.4 23:44:53 10° N 23:48:39 63° NNW 23:48:39 63° NNW
Cosmos 1455 Rocket 4.2 23:53:59 35° NE 23:53:59 35° NE 23:56:52 10° NNE
Terra 3.5 23:52:21 22° WSW 23:52:54 23° W 23:56:40 10° NW
ALOS 2 3.5 23:53:52 41° NE 23:53:52 41° NE 23:57:24 10° N
Cosmos 2082 Rocket 4.0 23:49:54 10° WNW 23:53:46 19° W 23:54:52 18° WSW
ISS -0.4 23:52:04 10° NW 23:54:25 18° N 23:56:46 10° NE
